Rafael Machado

Olheiro - Santos
4 Abr 2027
Domingo
Processo

Personalidade

Adaptabilidade (7) Ambição (17) Controvérsia (4) Lealdade (10) Pressão (18) Profissionalismo (10) Espírito Esportivo (12) Temperamento (7)

Perfil

Estilo de Treinamento Democrático
Licença Nacional B
Determinação 10
Gestão de Pessoas 6
Motivação 12
Disciplina 8
Satisfação no Trabalho
59%
Fadiga
0%
Função Olheiro
Salário 114.2K p/s
Contrato 14.03.2029

Desempenho

Comportamento Bom
Eficácia do Treinamento
29%
Desenvolvimento do Jogador
45%
Prevenção de Lesões
30%
Implementação Tática
50%

Eventos Recentes

Avaliou um jogador agora
Participou de uma reunião de recrutamento agora
Avaliou um jogador agora
Avaliou um jogador agora
Avaliou um jogador 7d atrás
Avaliou um jogador 7d atrás
Avaliou um jogador 7d atrás
Avaliou um jogador 7d atrás

Monitorando agora

168
Jogador Clube Status Habilidade Confiança Observado Última observação Último voto
Cristian Shpendi Cesena Ativo 114 / 132 40% 1 02.04.2027 -
Amaury Morales Tigres Ativo 111 / 118 40% 1 31.03.2027 -
Karim Konaté Red Bull Salzburg Ativo 154 / 138 40% 1 31.03.2027 -
Luís Esteves Atlas Ativo 127 / 127 40% 5 30.03.2027 -
Richard Ledezma Guadalajara Ativo 126 / 135 40% 4 30.03.2027 -
Manfred Ugalde Spartak Moscow Ativo 123 / 130 40% 1 30.03.2027 -
Nikola Krstović Atalanta Ativo 135 / 142 40% 1 30.03.2027 -
Erik Lira Cruz Azul Ativo 138 / 136 40% 3 29.03.2027 -
Matheuzinho Corinthians Ativo 128 / 128 40% 4 29.03.2027 -
Aleksa Terzić Frosinone Ativo 149 / 128 40% 2 27.03.2027 -
Rafiu Durosinmi Racing Genk Ativo 128 / 130 40% 2 27.03.2027 -
Adonis Frías Atlas Ativo 133 / 128 40% 1 27.03.2027 -
Kauã Elias Shakhtar Ativo 117 / 136 40% 1 27.03.2027 -
Yeferson Soteldo Fluminense Ativo 133 / 127 40% 1 26.03.2027 -
Uchenna Ogundu FC Augsburg Ativo 120 / 132 40% 1 25.03.2027 -
Jeff Ekhator Juventus Ativo 127 / 134 40% 1 25.03.2027 -
Agustín Ruberto River Plate Ativo 113 / 126 40% 2 24.03.2027 -
Uwe Franke Mouscron Ativo 138 / 130 40% 2 24.03.2027 -
Andrea Carboni Monza Ativo 112 / 127 40% 1 23.03.2027 -
Michy Lukaku Mouscron Ativo 142 / 130 40% 2 22.03.2027 -
Yorbe Vertessen Red Bull Salzburg Ativo 116 / 128 40% 2 22.03.2027 -
Gonzalo Plata Dinamo Moscow Ativo 119 / 135 40% 1 22.03.2027 -
Bright Arrey-Mbi Braga Ativo 121 / 133 40% 5 21.03.2027 -
Mattia Viti Sampdoria Ativo 136 / 134 40% 1 21.03.2027 -
Maurits Kjærgaard Red Bull Salzburg Ativo 135 / 131 40% 1 20.03.2027 -
Younes Ebnoutalib Eintracht Frankfurt Ativo 116 / 134 40% 1 18.03.2027 -
Petar Musa FC Dallas Ativo 130 / 137 40% 1 18.03.2027 -
Stav Toriel Hapoel Tel Aviv Ativo 111 / 129 40% 2 17.03.2027 -
Ricardo Mathias Al-Ahli Ativo 137 / 128 40% 1 17.03.2027 -
Imrân Louza Watford Ativo 118 / 131 40% 1 17.03.2027 -
Gustaf Lagerbielke Braga Ativo 142 / 138 40% 2 15.03.2027 -
Emam Ashour Al Ahly Ativo 139 / 136 40% 1 15.03.2027 -
Thierry Rendall Correia Venezia Ativo 140 / 137 40% 5 14.03.2027 -
Jesús Orozco Chiquete Cruz Azul Ativo 124 / 132 40% 3 12.03.2027 -
Marwan Ateya Al Ahly Ativo 121 / 132 40% 1 12.03.2027 -
Álex Valle Como Ativo 135 / 141 40% 2 11.03.2027 -
Kaveh Mohammadi Padideh Ativo 115 / 129 40% 3 10.03.2027 -
Jordan Holsgrove Estoril Praia Ativo 115 / 130 40% 3 08.03.2027 -
Liberato Cacace Wrexham Ativo 139 / 127 40% 1 05.03.2027 -
Danilo Botafogo Ativo 127 / 138 40% 6 28.02.2027 -
Christopher Opéri Basaksehir Ativo 128 / 128 40% 1 27.02.2027 -
Mohamed Ali Ben Romdhane Al Ahly Ativo 111 / 131 40% 1 27.02.2027 -
Fidel Ambríz Monterrey Ativo 139 / 130 40% 1 26.02.2027 -
Víctor Guzmán Monterrey Ativo 121 / 133 40% 3 25.02.2027 -
Samuele Birindelli Monza Ativo 121 / 123 40% 1 23.02.2027 -
Sébastien Durand Tours Ativo 138 / 139 40% 1 19.02.2027 -
Sebastián Cáceres Club America Ativo 141 / 134 40% 3 18.02.2027 -
Tyrell Malacia Leicester City Ativo 134 / 134 40% 2 18.02.2027 -
Jhohan Romaña Leon Ativo 135 / 130 40% 1 17.02.2027 -
Gustavo Marques Bragantino Ativo 126 / 132 40% 2 14.02.2027 -
Jonathan Arteaga Veracruz Ativo 119 / 125 40% 1 13.02.2027 -
Lucas Paquetá Flamengo Ativo 150 / 137 40% 1 13.02.2027 -
Ben Sheaf Wrexham Ativo 129 / 127 40% 1 11.02.2027 -
Frank Onyeka Coventry City Ativo 145 / 132 40% 3 10.02.2027 -
Sondre Langås Derby County Ativo 130 / 126 40% 1 10.02.2027 -
Pablo Maffeo Olympiacos Ativo 127 / 144 40% 4 07.02.2027 -
Nathan Silva Pumas UNAM Ativo 121 / 128 40% 4 03.02.2027 -
Luke McNally Bristol City Ativo 127 / 125 40% 1 03.02.2027 -
Juan Pablo Freytes Fluminense Ativo 139 / 125 40% 1 29.01.2027 -
Chris Rigg Sunderland Ativo 143 / 139 40% 3 26.01.2027 -
Ángelo Preciado Atlético Mineiro Ativo 125 / 133 40% 1 26.01.2027 -
Gustavo Mantuan Zenit Ativo 142 / 128 40% 1 21.01.2027 -
Lyanco Atlético Mineiro Ativo 140 / 128 40% 4 20.01.2027 -
Théo Hernández Al-Hilal Ativo 138 / 149 40% 1 20.01.2027 -
Matheus Henrique Cruzeiro Ativo 135 / 130 40% 6 10.01.2027 -
Lukáš Červ Viktoria Plzen Ativo 129 / 134 40% 1 05.01.2027 -
Emerson Royal Flamengo Ativo 123 / 129 40% 2 02.01.2027 -
Ronnie Edwards Queens Park Rangers Ativo 133 / 126 40% 1 02.01.2027 -
Alexandr Chernikov Krasnodar Ativo 126 / 133 40% 1 29.12.2026 -
Jemmes Fluminense Ativo 122 / 131 40% 1 26.12.2026 -
José Sampaio Vizela Ativo 92 / 121 40% 2 25.12.2026 -
Tomás Händel Crvena Zvezda Ativo 111 / 124 40% 1 25.12.2026 -
Juan Ignacio Nardoni Grêmio Ativo 118 / 132 40% 1 24.12.2026 -
Diego Costa Krasnodar Ativo 144 / 138 40% 1 23.12.2026 -
Ollie Scarles West Ham United Ativo 133 / 137 40% 1 20.12.2026 -
Ismaël Bennacer Palmeiras Ativo 149 / 145 40% 2 14.12.2026 -
Ilay Camara Anderlecht Ativo 140 / 133 40% 1 13.12.2026 -
Javi Sánchez Arouca Ativo 119 / 129 40% 1 12.12.2026 -
César Montes Lokomotiv Moscow Ativo 135 / 124 40% 1 06.12.2026 -
Hércules Fluminense Ativo 137 / 130 40% 1 30.11.2026 -
Abdullah Juma Al Ahli Ativo 117 / 132 40% 2 29.11.2026 -
Arthur Cabral Botafogo Ativo 124 / 125 40% 3 29.11.2026 -
Germán Berterame Inter Miami CF Ativo 144 / 131 40% 4 26.11.2026 -
Jacob Ambæk Brondby Ativo 114 / 133 40% 1 25.11.2026 -
Leandro Andrade Polissia Ativo 135 / 127 40% 2 23.11.2026 -
Yuki Kakita FC Copenhagen Ativo 148 / 134 40% 1 23.11.2026 -
Justin-Noël Kalumba Mallorca Ativo 105 / 120 40% 1 23.11.2026 -
Yoann Cathline Utrecht Ativo 140 / 135 40% 2 21.11.2026 -
Alexis Vega Toluca Ativo 154 / 140 40% 2 20.11.2026 -
David Kalokoh Ajax Ativo 97 / 124 40% 1 20.11.2026 -
Sergio Reguilón Inter Miami CF Ativo 126 / 135 40% 4 18.11.2026 -
Clayton Olympiacos Ativo 148 / 131 40% 1 18.11.2026 -
Francis Amuzu Grêmio Ativo 137 / 127 40% 1 18.11.2026 -
Federico Bonazzoli Cremonese Ativo 112 / 125 40% 1 16.11.2026 -
Michy Fellaini KV Oostende Ativo 155 / 141 40% 1 14.11.2026 -
Dion Beljo Dinamo Zagreb Ativo 119 / 137 40% 2 12.11.2026 -
Exequiel Zeballos Boca Juniors Ativo 138 / 130 40% 3 11.11.2026 -
Riqui Puig LA Galaxy Ativo 131 / 134 40% 3 10.11.2026 -
Eliezer Mayenda Stade Rennais Ativo 119 / 130 40% 1 07.11.2026 -
Marcel Ruiz Toluca Ativo 139 / 137 40% 4 06.11.2026 -
Gérson Cruzeiro Ativo 153 / 140 40% 2 06.11.2026 -
Tijjani Noslin Lazio Ativo 120 / 135 40% 1 05.11.2026 -
Ernest Muçi Trabzonspor Ativo 119 / 134 40% 1 03.11.2026 -
José Paradela Cruz Azul Ativo 144 / 137 40% 1 02.11.2026 -
Afonso Assis Moreirense Ativo 101 / 117 40% 1 31.10.2026 -
Thalys Almería Ativo 110 / 124 40% 1 29.10.2026 -
Arturo Cipriani Astra Ativo 150 / 138 40% 1 29.10.2026 -
Robert FC Copenhagen Ativo 136 / 136 40% 2 28.10.2026 -
Jones El-Abdellaoui Celta Ativo 108 / 131 40% 2 27.10.2026 -
Hugo Duro Valencia Ativo 156 / 143 40% 1 25.10.2026 -
João Carvalho Estoril Praia Ativo 125 / 134 40% 2 24.10.2026 -
Luca Orellano Monterrey Ativo 124 / 131 40% 3 23.10.2026 -
Reda Khadra Qarabag Ativo 120 / 134 40% 1 23.10.2026 -
Xavier Biscayzacú Defensor Sporting Ativo 133 / 128 40% 2 22.10.2026 -
Sebastián Córdova Pumas UNAM Ativo 137 / 130 40% 2 22.10.2026 -
Kein Sato FC Tokyo Ativo 116 / 127 40% 1 22.10.2026 -
Vitinho Botafogo Ativo 124 / 133 40% 3 21.10.2026 -
Yanis Begraoui Estoril Praia Ativo 114 / 138 40% 2 21.10.2026 -
Matvii Ponomarenko Dynamo Kyiv Ativo 115 / 114 40% 1 21.10.2026 -
Jorge Carrascal Flamengo Ativo 120 / 134 40% 2 20.10.2026 -
Salvador Blopá Sporting CP Ativo 132 / 117 40% 1 20.10.2026 -
Jonás Luna Osasuna Ativo 108 / 120 40% 1 18.10.2026 -
Pedro Bondo Famalicao Ativo 97 / 123 40% 1 15.10.2026 -
Tristan Degreef Anderlecht Ativo 122 / 128 40% 1 14.10.2026 -
Mathias De Amorim Famalicao Ativo 129 / 139 40% 1 11.10.2026 -
Sabino Sport Recife Ativo 127 / 128 40% 1 11.10.2026 -
Petar Stanić Ludogorets Ativo 117 / 134 40% 1 10.10.2026 -
Cesar Corona Veracruz Ativo 123 / 137 40% 4 07.10.2026 -
Bruno Gomes Internacional Ativo 118 / 127 40% 1 07.10.2026 -
Julián Quiñones Al-Qadisiyah Ativo 130 / 152 40% 2 05.10.2026 -
Jalal Abdullai Molde Ativo 127 / 113 40% 1 01.10.2026 -
Ciprian Coman Pandurii Ativo 99 / 123 40% 1 29.09.2026 -
Vitinha Genoa Ativo 137 / 130 40% 1 29.09.2026 -
Carlos Rodríguez Cruz Azul Ativo 133 / 132 40% 1 29.09.2026 -
Toni Tamarit Alverca Ativo 126 / 121 40% 1 29.09.2026 -
Akor Adams Venezia Ativo 119 / 140 40% 1 27.09.2026 -
Agustín Palavecino Cruz Azul Ativo 129 / 138 40% 1 25.09.2026 -
Luis Sinisterra Cruzeiro Ativo 136 / 138 40% 2 24.09.2026 -
Hamza Igamane LOSC Lille Ativo 120 / 136 40% 1 24.09.2026 -
Will Lankshear Middlesbrough Ativo 139 / 121 40% 2 22.09.2026 -
Paulinho Palmeiras Ativo 154 / 142 40% 3 21.09.2026 -
Renan Lodi Atlético Mineiro Ativo 136 / 138 40% 2 20.09.2026 -
Relebohile Mofokeng Orlando Pirates Ativo 127 / 118 40% 1 19.09.2026 -
Agustín Canobbio Fluminense Ativo 119 / 132 40% 2 17.09.2026 -
Joaquín Piquerez Palmeiras Ativo 124 / 135 40% 1 17.09.2026 -
Pedro Flamengo Ativo 128 / 139 40% 3 15.09.2026 -
Pablo Ramón Racing Club Ativo 120 / 131 40% 1 15.09.2026 -
Jason Januzaj Mouscron Ativo 129 / 141 40% 2 12.09.2026 -
Martín Ojeda Orlando City Ativo 131 / 136 40% 1 11.09.2026 -
Luciano Juba Bahia Ativo 146 / 138 40% 2 07.09.2026 -
Vitor Roque Palmeiras Ativo 146 / 148 40% 2 06.09.2026 -
Diego Rossi Monterrey Ativo 124 / 134 40% 1 01.09.2026 -
Rocco Vata Watford Ativo 100 / 122 40% 1 31.08.2026 -
Luís Guilherme Sporting CP Ativo 131 / 130 40% 1 27.08.2026 -
Alejandro Zendejas Club America Ativo 134 / 137 40% 1 24.08.2026 -
Jean-Luc Morin Tours Ativo 121 / 133 40% 2 23.08.2026 -
Leo Castledine Middlesbrough Ativo 140 / 128 40% 1 17.08.2026 -
Mateo Cassierra Atlético Mineiro Ativo 120 / 134 40% 1 15.08.2026 -
Kaio Jorge Cruzeiro Ativo 127 / 137 40% 2 11.08.2026 -
Fotis Ioannidis Sporting CP Ativo 140 / 143 40% 1 10.08.2026 -
Nicolás Azambuja Danubio Ativo 106 / 126 40% 1 09.08.2026 -
Guilherme Arana Fluminense Ativo 136 / 139 40% 1 07.08.2026 -
Vitão Flamengo Ativo 139 / 138 40% 1 05.08.2026 -
Alexander Bah Benfica Ativo 128 / 135 40% 1 05.08.2026 -
Martim Fernandes Porto Ativo 131 / 145 40% 1 04.08.2026 -
Iván Fresneda Sporting CP Ativo 125 / 142 40% 1 04.08.2026 -
Idan Toklomati Charlotte Football Club Ativo 118 / 121 40% 1 03.08.2026 -
Daniel Bragança Sporting CP Ativo 116 / 141 40% 1 02.08.2026 -